Regional Weather Roundup
Issued by NWS

Home | Current Version | Previous Version | Graphics & Text | Print | Product List | Glossary On
Versions: 1 2 3 4 5 6 7 8 9 10 11 12 13 14 15 16 17 18 19 20 21 22 23 24 25 26 27 28 29 30 31 32 33 34 35 36 37 38 39 40 41 42 43 44 45 46 47 48 49 50
000
ASUS45 KTFX 102304
RWRMT
MONTANA HOURLY WEATHER ROUNDUP
NATIONAL WEATHER SERVICE GREAT FALLS MT
504 PM MDT THU JUL 10 2014

NOTE: "FAIR" INDICATES FEW OR NO CLOUDS BELOW 12000 FEET WITH NO
SIGNIFICANT WEATHER AND/OR OBSTRUCTIONS TO VISIBILITY.

* THESE STATIONS ARE NOT UNDER NWS QUALITY CONTROL. THEY DO NOT
   REPORT WEATHER SUCH AS PRECIPITATION OR FOG.

MTZ001>007-043-110000-
WEST OF THE DIVIDE
CITY           SKY/WX    TMP DP  RH WIND       PRES   REMARKS
KALISPELL      CLEAR     90  36  15 SW12      29.81S
MISSOULA       CLEAR     93  32  11 W13       29.83S
BUTTE          CLEAR     84  34  17 W9G17     29.98F
MULLAN PASS    CLEAR     72  43  35 N/A       30.07S
* ESSEX        N/A      N/A N/A N/A N/A        N/A
* LINCOLN      N/A       87  34  15 W6G17      N/A
* LOOKOUT PASS N/A       78  43  29 S6G17      N/A
* POLSON       N/A       88  43  21 SW4G9      N/A
* RONAN APT    CLEAR     90  45  21 SW10G15    N/A
* SEELEY LAKE  N/A       88  36  16 W9G18      N/A
* THOMP F APT  CLEAR     77  48  36 SE7G12     N/A
* YAAK HILL    N/A       94  47  20 S1         N/A
$$

MTZ008-052>055-110000-
SOUTHWEST MONTANA
CITY           SKY/WX    TMP DP  RH WIND       PRES   REMARKS
BOZEMAN        CLEAR     88  46  23 CALM      29.90F
DILLON         CLEAR     84  43  24 W7        29.94F
W YELLOWSTONE  PTCLDY    75  46  36 SW9G22    30.09F
* THREE FORKS  CLEAR     91  48  23 W8         N/A
* BOULDER HILL N/A       84  39  20 S11G19     N/A
* MONIDA PASS  N/A       75  45  34 SE12G17    N/A
* RAYNOLDS PAS N/A       78  50  38 SE11G19    N/A
* WHITEHALL    N/A       93  43  18 S11G19     N/A
* WISE RIVER   N/A       85  32  15 W10G19     N/A
$$

MTZ009>010-012-014-046-048-049-054-110000-
EAST SLOPES AND CENTRAL MONTANA
CITY           SKY/WX    TMP DP  RH WIND       PRES   REMARKS
CUT BANK       CLEAR     84  48  29 VRB5      29.85F
GREAT FALLS    CLEAR     90  36  15 W9G21     29.81F
HELENA         CLEAR     91  43  19 NE5       29.83S
* CONRAD       CLEAR     86  57  37 N6         N/A
* DEARBORN     N/A       92  32  12 SW13G24    N/A
* EAST GLACIER N/A       80  41  25 W16G27     N/A
* MONARCH      N/A       83  33  16 W6G13      N/A
* PENDROY      N/A       84  46  26 N8         N/A
* ROGERS PASS  N/A       82  31  16 SE10G20    N/A
* SAINT MARY   N/A       83  40  22 SW6G17     N/A
* SWEET GRASS  N/A       79  55  44 NE10       N/A
$$

MTZ011-013-016-021-035-040-045-047-050-051-110000-
NORTH CENTRAL MONTANA
CITY           SKY/WX    TMP DP  RH WIND       PRES   REMARKS
HAVRE          FAIR      88  48  25 CALM      29.79F
LEWISTOWN      CLEAR     90  43  19 NW8       29.88F
* CHESTER      N/A       86  46  25 W5G11      N/A
* DENTON       N/A       89  50  26 NW11       N/A
* GEYSER       N/A       90  44  20 N/A        N/A
* JUDITH GAP   N/A       87  47  25 NE1G11     N/A
* LOMA         N/A       92  41  17 W9         N/A
$$

MTZ017>020-022>027-061-062-110000-
NORTHEAST MONTANA
CITY           SKY/WX    TMP DP  RH WIND       PRES   REMARKS
GLASGOW        FAIR      90  54  29 N12G25    29.78R
GLENDIVE       CLEAR     91  55  30 NW16G21   29.77R
JORDAN         CLEAR     91  45  20 NW12G25   29.80R
SIDNEY         PTCLDY    95  54  25 NW14      29.73S
WOLF POINT     CLEAR     91  61  37 N20G28    29.74R
* BEAVER HILL  N/A       87  55  34 W11        N/A
* CIRCLE       N/A       89  57  34 NW11G16    N/A
* LINDSAY DVD  N/A       85  57  39 NW14G24    N/A
* NAVAJO       N/A       80  62  54 VRB20G27    N/A   HI  81
$$

MTZ028>042-056>058-110000-
SOUTHCENTRAL AND SOUTHEAST MONTANA
CITY           SKY/WX    TMP DP  RH WIND       PRES   REMARKS
BAKER          CLEAR     91  52  26 NW13      29.81S
BILLINGS       FAIR      91  43  19 VRB7      29.84F
LIVINGSTON     CLEAR     91  37  15 N12       29.89F
MILES CITY     PTCLDY    97  43  16 W10       29.76S
* LAUREL APT   CLEAR     91  45  20 NE6        N/A
* ROUNDUP APT  CLEAR     91  45  20 VRB7       N/A
* ALZADA       N/A       87  57  36 SW8        N/A
* HYSHAM       N/A       92  47  21 W4         N/A
* LAME DEER    N/A       85  46  26 W6         N/A
* REED POINT   N/A       93  48  21 W10G19     N/A
* ROSCOE HILL  N/A       85  43  23 NE2G12     N/A
$$

REGIONAL REPORTS...DAKOTAS
CITY           SKY/WX    TMP DP  RH WIND       PRES   REMARKS
WILLISTON      PTCLDY    91  61  37 S8        29.71S
DICKINSON      CLEAR     82  68  63 SE12      29.78F HI  85
CROSBY         PTCLDY    82  68  63 S9        29.71S HI  85
WATFORD CITY   CLEAR     84  68  59 SE9       29.72F HI  87
BISMARCK       CLEAR     79  66  65 S9        29.80F
GRAND FORKS    CLOUDY    81  63  54 SE12G22   29.83F HI  82
FARGO          LGT RAIN  79  63  58 S10G22    29.84F
BUFFALO SD     PTCLDY    90  59  35 S6G16     29.76S
RAPID CITY     CLOUDY    82  61  49 W5        29.88F HI  83
$$

REGIONAL REPORTS...WYOMING/IDAHO/WASHINGTON
CITY           SKY/WX    TMP DP  RH WIND       PRES   REMARKS
GILLETTE       MOCLDY    84  54  36 NW7       29.93F
SHERIDAN       MOCLDY    82  54  38 SE6       29.91F
CODY           MOCLDY   N/A N/A N/A E6        29.98F
YELLOWSTONE LA PTCLDY    70  43  38 VRB5      30.21F
SALMON         PTCLDY    90  48  24 N9        29.85S
MULLAN PASS    CLEAR     72  43  35 N/A       30.07S
SAND POINT     CLEAR     86  45  24 S9        29.83F
SPOKANE        PTCLDY    90  30  12 SW12      29.83F

$$



USA.gov is the U.S. government's official web portal to all federal, state and local government web resources and services.